Time,TemperatureF,DewpointF,PressureIn,WindDirection,WindDirectionDegrees,WindSpeedMPH,WindSpeedGustMPH,Humidity,HourlyPrecipIn,Conditions,Clouds,dailyrainin,SoftwareType,DateUTC
2013-03-13 00:08:00,25.2,0.1,30.30,West,279,0.0,12.0,33,0.00,,,0.12,meteohub,2013-03-13 05:08:00,
2013-03-13 00:09:00,25.2,0.1,30.30,WNW,284,4.0,12.0,33,0.00,,,0.12,meteohub,2013-03-13 05:09:00,
2013-03-13 00:10:00,25.2,0.1,30.30,North,357,3.0,12.0,33,0.00,,,0.12,meteohub,2013-03-13 05:10:00,
2013-03-13 00:15:00,25.3,0.9,30.30,NNW,339,0.0,-999.0,34,-99.99,,,0.00,meteohub,2013-03-13 05:15:00,
2013-03-13 00:21:00,25.2,0.7,30.30,NNW,348,3.0,5.0,34,0.00,,,0.00,meteohub,2013-03-13 05:21:00,
2013-03-13 00:26:00,25.0,1.2,30.30,WNW,290,0.0,5.0,35,0.00,,,0.00,meteohub,2013-03-13 05:26:00,
2013-03-13 00:31:00,25.2,1.4,30.30,WNW,293,0.0,4.0,35,0.00,,,0.00,meteohub,2013-03-13 05:31:00,
2013-03-13 00:36:00,25.0,1.2,30.30,NW,307,0.0,4.0,35,0.00,,,0.00,meteohub,2013-03-13 05:36:00,
2013-03-13 00:42:00,24.6,1.4,30.30,North,0,0.0,0.0,36,0.00,,,0.00,meteohub,2013-03-13 05:42:00,
2013-03-13 00:47:00,24.4,0.7,30.30,North,357,0.0,0.0,35,0.00,,,0.00,meteohub,2013-03-13 05:47:00,
2013-03-13 00:52:00,24.4,1.2,30.30,NNW,346,4.0,0.0,36,0.00,,,0.00,meteohub,2013-03-13 05:52:00,
2013-03-13 00:57:00,24.4,1.2,30.30,NNW,342,4.0,5.0,36,0.00,,,0.00,meteohub,2013-03-13 05:57:00,
2013-03-13 01:02:00,24.3,1.2,30.30,NNW,338,3.0,5.0,36,0.00,,,0.00,meteohub,2013-03-13 06:02:00,
2013-03-13 01:07:00,24.1,1.0,30.30,NNW,348,3.0,5.0,36,0.00,,,0.00,meteohub,2013-03-13 06:07:00,
2013-03-13 01:13:00,24.1,1.0,30.30,North,353,3.0,4.0,36,0.00,,,0.00,meteohub,2013-03-13 06:13:00,
2013-03-13 01:18:00,23.9,1.4,30.33,North,3,3.0,4.0,37,0.00,,,0.00,meteohub,2013-03-13 06:18:00,
2013-03-13 01:23:00,23.7,0.7,30.33,NNW,339,3.0,4.0,36,0.00,,,0.00,meteohub,2013-03-13 06:23:00,
2013-03-13 01:28:00,23.5,0.5,30.33,North,353,3.0,4.0,36,0.00,,,0.00,meteohub,2013-03-13 06:28:00,
2013-03-13 01:33:00,23.5,1.0,30.33,North,353,4.0,4.0,37,0.00,,,0.00,meteohub,2013-03-13 06:33:00,
2013-03-13 01:39:00,23.4,0.9,30.33,North,0,4.0,4.0,37,0.00,,,0.00,meteohub,2013-03-13 06:39:00,
2013-03-13 01:44:00,23.2,1.4,30.33,NW,326,4.0,4.0,38,0.00,,,0.00,meteohub,2013-03-13 06:44:00,
2013-03-13 01:49:00,23.2,1.4,30.33,NNW,336,3.0,5.0,38,0.00,,,0.00,meteohub,2013-03-13 06:49:00,
2013-03-13 01:54:00,23.2,1.9,30.33,NW,324,4.0,5.0,39,0.00,,,0.00,meteohub,2013-03-13 06:54:00,
2013-03-13 01:59:00,23.2,1.9,30.33,NNW,341,3.0,5.0,39,0.00,,,0.00,meteohub,2013-03-13 06:59:00,
2013-03-13 02:05:00,23.0,2.3,30.33,NNW,341,4.0,5.0,40,0.00,,,0.00,meteohub,2013-03-13 07:05:00,
2013-03-13 02:10:00,22.8,2.1,30.33,NNW,340,0.0,5.0,40,0.00,,,0.00,meteohub,2013-03-13 07:10:00,
2013-03-13 02:15:00,22.8,3.2,30.33,NW,320,2.0,4.0,42,0.00,,,0.00,meteohub,2013-03-13 07:15:00,
2013-03-13 02:20:00,22.5,2.8,30.33,West,274,0.0,4.0,42,0.00,,,0.00,meteohub,2013-03-13 07:20:00,
2013-03-13 02:25:00,22.1,2.5,30.33,NNW,331,4.0,4.0,42,0.00,,,0.00,meteohub,2013-03-13 07:25:00,
2013-03-13 02:31:00,21.9,2.3,30.33,NW,306,4.0,4.0,42,0.00,,,0.00,meteohub,2013-03-13 07:31:00,
2013-03-13 02:36:00,21.6,1.9,30.33,NW,316,0.0,5.0,42,0.00,,,0.00,meteohub,2013-03-13 07:36:00,
2013-03-13 02:41:00,21.4,1.8,30.33,NW,316,0.0,5.0,42,0.00,,,0.00,meteohub,2013-03-13 07:41:00,
2013-03-13 02:46:00,21.4,2.3,30.33,NW,316,0.0,5.0,43,0.00,,,0.00,meteohub,2013-03-13 07:46:00,
2013-03-13 02:51:00,21.2,2.1,30.33,West,279,0.0,0.0,43,0.00,,,0.00,meteohub,2013-03-13 07:51:00,
2013-03-13 02:57:00,21.0,1.9,30.33,West,279,0.0,0.0,43,0.00,,,0.00,meteohub,2013-03-13 07:57:00,
2013-03-13 03:02:00,20.7,1.8,30.33,West,269,3.0,0.0,43,0.00,,,0.00,meteohub,2013-03-13 08:02:00,
2013-03-13 03:08:00,20.3,1.4,30.33,NNW,336,4.0,6.0,43,0.00,,,0.00,meteohub,2013-03-13 08:08:00,
2013-03-13 03:13:00,20.3,1.4,30.33,West,272,0.0,6.0,43,0.00,,,0.00,meteohub,2013-03-13 08:13:00,
2013-03-13 03:18:00,20.3,1.4,30.33,West,272,0.0,6.0,43,0.00,,,0.00,meteohub,2013-03-13 08:18:00,
2013-03-13 03:23:00,20.1,1.2,30.33,West,271,0.0,6.0,43,0.00,,,0.00,meteohub,2013-03-13 08:23:00,
2013-03-13 03:29:00,20.1,1.2,30.33,West,272,0.0,4.0,43,0.00,,,0.00,meteohub,2013-03-13 08:29:00,
2013-03-13 03:34:00,20.1,1.2,30.33,WSW,257,0.0,0.0,43,0.00,,,0.00,meteohub,2013-03-13 08:34:00,
2013-03-13 03:39:00,19.9,1.0,30.33,West,260,0.0,4.0,43,0.00,,,0.00,meteohub,2013-03-13 08:39:00,
2013-03-13 03:44:00,19.8,0.9,30.33,West,260,0.0,4.0,43,0.00,,,0.00,meteohub,2013-03-13 08:44:00,
2013-03-13 03:49:00,19.8,0.9,30.33,West,260,0.0,4.0,43,0.00,,,0.00,meteohub,2013-03-13 08:49:00,
2013-03-13 03:54:00,19.6,0.7,30.33,West,260,0.0,0.0,43,0.00,,,0.00,meteohub,2013-03-13 08:54:00,
2013-03-13 04:00:00,19.6,0.7,30.33,West,260,0.0,0.0,43,0.00,,,0.00,meteohub,2013-03-13 09:00:00,
2013-03-13 04:05:00,19.6,0.7,30.33,West,259,0.0,0.0,43,0.00,,,0.00,meteohub,2013-03-13 09:05:00,
2013-03-13 04:10:00,19.6,0.7,30.33,West,260,3.0,0.0,43,0.00,,,0.00,meteohub,2013-03-13 09:10:00,
2013-03-13 04:15:00,19.6,0.7,30.33,West,259,0.0,4.0,43,0.00,,,0.00,meteohub,2013-03-13 09:15:00,
2013-03-13 04:20:00,19.6,0.7,30.33,West,260,0.0,4.0,43,0.00,,,0.00,meteohub,2013-03-13 09:20:00,
2013-03-13 04:26:00,19.6,0.7,30.33,West,260,0.0,3.0,43,0.00,,,0.00,meteohub,2013-03-13 09:26:00,
2013-03-13 04:31:00,19.4,0.5,30.33,West,259,0.0,0.0,43,0.00,,,0.00,meteohub,2013-03-13 09:31:00,
2013-03-13 04:36:00,19.0,0.1,30.33,West,260,0.0,0.0,43,0.00,,,0.00,meteohub,2013-03-13 09:36:00,
2013-03-13 04:42:00,19.0,0.7,30.33,West,259,0.0,0.0,44,0.00,,,0.00,meteohub,2013-03-13 09:42:00,
2013-03-13 04:47:00,19.2,0.9,30.33,West,260,0.0,0.0,44,0.00,,,0.00,meteohub,2013-03-13 09:47:00,
2013-03-13 04:52:00,19.4,1.0,30.33,West,260,0.0,0.0,44,0.00,,,0.00,meteohub,2013-03-13 09:52:00,
2013-03-13 04:57:00,19.6,0.7,30.33,NW,307,0.0,0.0,43,0.00,,,0.00,meteohub,2013-03-13 09:57:00,
2013-03-13 05:02:00,19.9,1.6,30.33,NW,319,0.0,4.0,44,0.00,,,0.00,meteohub,2013-03-13 10:02:00,
2013-03-13 05:07:00,19.9,1.6,30.33,WNW,288,0.0,4.0,44,0.00,,,0.00,meteohub,2013-03-13 10:07:00,
2013-03-13 05:12:00,19.8,1.4,30.33,West,265,0.0,4.0,44,0.00,,,0.00,meteohub,2013-03-13 10:12:00,
2013-03-13 05:17:00,19.6,0.7,30.33,West,265,0.0,4.0,43,0.00,,,0.00,meteohub,2013-03-13 10:17:00,
2013-03-13 05:22:00,19.4,1.0,30.33,West,265,0.0,4.0,44,0.00,,,0.00,meteohub,2013-03-13 10:22:00,
2013-03-13 05:27:00,19.0,0.7,30.33,West,265,0.0,0.0,44,0.00,,,0.00,meteohub,2013-03-13 10:27:00,
2013-03-13 05:33:00,18.5,0.1,30.36,West,265,0.0,0.0,44,0.00,,,0.00,meteohub,2013-03-13 10:33:00,
2013-03-13 05:38:00,18.3,0.1,30.36,West,265,0.0,0.0,44,0.00,,,0.00,meteohub,2013-03-13 10:38:00,
2013-03-13 05:43:00,18.3,0.1,30.36,West,265,0.0,0.0,44,0.00,,,0.00,meteohub,2013-03-13 10:43:00,
2013-03-13 05:48:00,18.3,0.1,30.36,West,265,0.0,0.0,44,0.00,,,0.00,meteohub,2013-03-13 10:48:00,
2013-03-13 05:53:00,18.1,0.0,30.36,West,275,0.0,0.0,44,0.00,,,0.00,meteohub,2013-03-13 10:53:00,
2013-03-13 05:58:00,18.1,0.0,30.36,West,275,0.0,4.0,44,0.00,,,0.00,meteohub,2013-03-13 10:58:00,
2013-03-13 06:03:00,18.1,0.0,30.36,West,275,0.0,4.0,44,0.00,,,0.00,meteohub,2013-03-13 11:03:00,
2013-03-13 06:08:00,18.3,0.1,30.36,West,275,0.0,4.0,44,0.00,,,0.00,meteohub,2013-03-13 11:08:00,
2013-03-13 06:13:00,18.0,-0.2,30.36,West,275,0.0,0.0,44,0.00,,,0.00,meteohub,2013-03-13 11:13:00,
2013-03-13 06:19:00,17.6,-0.6,30.36,West,275,0.0,0.0,44,0.00,,,0.00,meteohub,2013-03-13 11:19:00,
2013-03-13 06:24:00,17.4,-0.8,30.36,West,275,0.0,0.0,44,0.00,,,0.00,meteohub,2013-03-13 11:24:00,
2013-03-13 06:29:00,17.1,-1.1,30.36,West,275,0.0,0.0,44,0.00,,,0.00,meteohub,2013-03-13 11:29:00,
2013-03-13 06:34:00,16.9,-1.3,30.36,West,275,0.0,0.0,44,0.00,,,0.00,meteohub,2013-03-13 11:34:00,
2013-03-13 06:39:00,16.7,-1.5,30.36,West,275,0.0,0.0,44,0.00,,,0.00,meteohub,2013-03-13 11:39:00,
2013-03-13 06:45:00,16.7,-1.5,30.36,West,275,0.0,0.0,44,0.00,,,0.00,meteohub,2013-03-13 11:45:00,
2013-03-13 06:50:00,16.7,-1.5,30.36,West,275,0.0,0.0,44,0.00,,,0.00,meteohub,2013-03-13 11:50:00,
2013-03-13 06:55:00,16.9,-1.3,30.36,West,275,0.0,0.0,44,0.00,,,0.00,meteohub,2013-03-13 11:55:00,
2013-03-13 07:01:00,17.2,-0.4,30.36,West,275,0.0,0.0,45,0.00,,,0.00,meteohub,2013-03-13 12:01:00,
2013-03-13 07:06:00,17.8,-0.4,30.36,West,275,0.0,0.0,44,0.00,,,0.00,meteohub,2013-03-13 12:06:00,
2013-03-13 07:11:00,17.8,-0.4,30.36,West,275,0.0,0.0,44,0.00,,,0.00,meteohub,2013-03-13 12:11:00,
2013-03-13 07:16:00,18.0,-0.2,30.36,West,275,0.0,0.0,44,0.00,,,0.00,meteohub,2013-03-13 12:16:00,
2013-03-13 07:21:00,17.8,-0.4,30.36,West,275,0.0,0.0,44,0.00,,,0.00,meteohub,2013-03-13 12:21:00,
2013-03-13 07:26:00,17.8,-0.4,30.36,West,275,0.0,0.0,44,0.00,,,0.00,meteohub,2013-03-13 12:26:00,
2013-03-13 07:31:00,17.8,-0.4,30.36,West,275,0.0,0.0,44,0.00,,,0.00,meteohub,2013-03-13 12:31:00,
2013-03-13 07:37:00,17.6,-0.6,30.36,West,275,0.0,0.0,44,0.00,,,0.00,meteohub,2013-03-13 12:37:00,
2013-03-13 07:42:00,17.2,-0.9,30.36,West,275,0.0,0.0,44,0.00,,,0.00,meteohub,2013-03-13 12:42:00,
2013-03-13 07:47:00,17.1,-1.1,30.36,West,275,0.0,0.0,44,0.00,,,0.00,meteohub,2013-03-13 12:47:00,
2013-03-13 07:52:00,17.1,-1.1,30.36,West,275,0.0,0.0,44,0.00,,,0.00,meteohub,2013-03-13 12:52:00,
2013-03-13 07:57:00,17.2,-0.4,30.36,West,275,0.0,0.0,45,0.00,,,0.00,meteohub,2013-03-13 12:57:00,
2013-03-13 08:02:00,17.6,-0.2,30.36,West,275,0.0,0.0,45,0.00,,,0.00,meteohub,2013-03-13 13:02:00,
2013-03-13 08:07:00,17.8,-0.4,30.36,West,275,0.0,0.0,44,0.00,,,0.00,meteohub,2013-03-13 13:07:00,
2013-03-13 08:12:00,17.6,-0.2,30.36,West,275,0.0,0.0,45,0.00,,,0.00,meteohub,2013-03-13 13:12:00,
2013-03-13 08:17:00,17.4,-0.2,30.36,West,275,0.0,0.0,45,0.00,,,0.00,meteohub,2013-03-13 13:17:00,
2013-03-13 08:22:00,17.8,-0.4,30.36,West,275,0.0,0.0,44,0.00,,,0.00,meteohub,2013-03-13 13:22:00,
2013-03-13 08:27:00,18.1,0.3,30.36,West,275,0.0,0.0,45,0.00,,,0.00,meteohub,2013-03-13 13:27:00,
2013-03-13 08:32:00,18.7,0.9,30.36,West,275,0.0,0.0,45,0.00,,,0.00,meteohub,2013-03-13 13:32:00,
2013-03-13 08:37:00,19.0,1.2,30.36,West,275,0.0,0.0,45,0.00,,,0.00,meteohub,2013-03-13 13:37:00,
2013-03-13 08:42:00,19.6,1.2,30.36,West,275,0.0,0.0,44,0.00,,,0.00,meteohub,2013-03-13 13:42:00,
2013-03-13 08:47:00,19.8,1.4,30.36,West,275,0.0,0.0,44,0.00,,,0.00,meteohub,2013-03-13 13:47:00,
2013-03-13 08:52:00,20.1,1.8,30.36,West,275,0.0,0.0,44,0.00,,,0.00,meteohub,2013-03-13 13:52:00,
2013-03-13 08:57:00,20.3,2.3,30.36,West,275,0.0,0.0,45,0.00,,,0.00,meteohub,2013-03-13 13:57:00,
2013-03-13 09:02:00,20.7,2.7,30.39,West,268,0.0,3.0,45,0.00,,,0.00,meteohub,2013-03-13 14:02:00,
2013-03-13 09:07:00,21.0,3.0,30.39,West,265,0.0,4.0,45,0.00,,,0.00,meteohub,2013-03-13 14:07:00,
2013-03-13 09:13:00,21.4,3.4,30.39,West,260,3.0,4.0,45,0.00,,,0.00,meteohub,2013-03-13 14:13:00,
2013-03-13 09:18:00,21.6,3.0,30.39,West,263,0.0,6.0,44,0.00,,,0.00,meteohub,2013-03-13 14:18:00,
2013-03-13 09:23:00,21.7,3.2,30.39,West,263,0.0,6.0,44,0.00,,,0.00,meteohub,2013-03-13 14:23:00,
2013-03-13 09:28:00,21.9,3.4,30.39,WSW,256,0.0,6.0,44,0.00,,,0.00,meteohub,2013-03-13 14:28:00,
2013-03-13 09:33:00,22.3,4.1,30.39,WSW,238,4.0,5.0,45,0.00,,,0.00,meteohub,2013-03-13 14:33:00,
2013-03-13 09:38:00,23.0,4.8,30.39,WSW,238,0.0,4.0,45,0.00,,,0.00,meteohub,2013-03-13 14:38:00,
2013-03-13 09:43:00,24.3,5.9,30.39,WSW,237,0.0,4.0,45,0.00,,,0.00,meteohub,2013-03-13 14:43:00,
2013-03-13 09:49:00,24.6,5.9,30.39,WSW,238,0.0,4.0,44,0.00,,,0.00,meteohub,2013-03-13 14:49:00,
2013-03-13 09:54:00,25.0,5.7,30.39,WSW,238,0.0,0.0,43,0.00,,,0.00,meteohub,2013-03-13 14:54:00,
2013-03-13 09:59:00,26.2,6.8,30.39,WSW,238,0.0,0.0,43,0.00,,,0.00,meteohub,2013-03-13 14:59:00,
2013-03-13 10:04:00,28.8,9.1,30.39,WSW,238,0.0,0.0,43,0.00,,,0.00,meteohub,2013-03-13 15:04:00,
2013-03-13 10:10:00,29.7,9.3,30.39,WSW,238,0.0,0.0,42,0.00,,,0.00,meteohub,2013-03-13 15:10:00,
2013-03-13 10:15:00,30.2,9.9,30.39,WSW,238,0.0,0.0,42,0.00,,,0.00,meteohub,2013-03-13 15:15:00,
2013-03-13 10:20:00,30.2,9.3,30.42,WSW,238,0.0,0.0,41,0.00,,,0.00,meteohub,2013-03-13 15:20:00,
2013-03-13 10:25:00,29.7,6.6,30.42,WSW,238,0.0,0.0,37,0.00,,,0.00,meteohub,2013-03-13 15:25:00,
2013-03-13 10:30:00,29.1,3.6,30.42,WSW,238,0.0,0.0,33,0.00,,,0.00,meteohub,2013-03-13 15:30:00,
2013-03-13 10:36:00,28.4,2.3,30.42,WSW,238,0.0,0.0,32,0.00,,,0.00,meteohub,2013-03-13 15:36:00,
2013-03-13 10:41:00,28.9,2.8,30.42,WSW,238,0.0,0.0,32,0.00,,,0.00,meteohub,2013-03-13 15:41:00,
2013-03-13 10:47:00,29.8,3.6,30.42,WSW,238,0.0,0.0,32,0.00,,,0.00,meteohub,2013-03-13 15:47:00,
2013-03-13 10:52:00,30.2,3.2,30.42,WSW,238,0.0,0.0,31,0.00,,,0.00,meteohub,2013-03-13 15:52:00,
2013-03-13 10:57:00,30.2,3.2,30.42,WSW,238,0.0,0.0,31,0.00,,,0.00,meteohub,2013-03-13 15:57:00,
2013-03-13 11:02:00,30.6,2.8,30.39,WSW,238,0.0,0.0,30,0.00,,,0.00,meteohub,2013-03-13 16:02:00,
2013-03-13 11:07:00,31.1,3.2,30.39,WSW,238,0.0,0.0,30,0.00,,,0.00,meteohub,2013-03-13 16:07:00,
2013-03-13 11:13:00,30.9,3.2,30.39,WSW,238,0.0,0.0,30,0.00,,,0.00,meteohub,2013-03-13 16:13:00,
2013-03-13 11:18:00,31.5,3.6,30.39,WSW,238,0.0,0.0,30,0.00,,,0.00,meteohub,2013-03-13 16:18:00,
2013-03-13 11:23:00,32.2,4.3,30.39,WSW,238,3.0,0.0,30,0.00,,,0.00,meteohub,2013-03-13 16:23:00,
2013-03-13 11:28:00,32.4,2.8,30.39,South,188,3.0,3.0,28,0.00,,,0.00,meteohub,2013-03-13 16:28:00,
2013-03-13 11:34:00,32.9,3.4,30.39,SW,235,3.0,5.0,28,0.00,,,0.00,meteohub,2013-03-13 16:34:00,
2013-03-13 11:39:00,34.2,3.7,30.39,WSW,246,5.0,5.0,27,0.00,,,0.00,meteohub,2013-03-13 16:39:00,
2013-03-13 11:44:00,33.1,1.0,30.39,South,172,0.0,5.0,25,0.00,,,0.00,meteohub,2013-03-13 16:44:00,
2013-03-13 11:50:00,32.5,0.7,30.39,SSW,193,0.0,6.0,25,0.00,,,0.00,meteohub,2013-03-13 16:50:00,
2013-03-13 11:55:00,32.4,0.5,30.39,South,174,0.0,4.0,25,0.00,,,0.00,meteohub,2013-03-13 16:55:00,
2013-03-13 12:00:00,32.0,0.1,30.39,SSE,167,3.0,5.0,25,0.00,,,0.00,meteohub,2013-03-13 17:00:00,
2013-03-13 12:05:00,31.6,-0.2,30.39,SSW,198,3.0,6.0,25,0.00,,,0.00,meteohub,2013-03-13 17:05:00,
2013-03-13 12:11:00,31.8,0.0,30.39,SSW,209,5.0,6.0,25,0.00,,,0.00,meteohub,2013-03-13 17:11:00,
2013-03-13 12:16:00,31.8,0.0,30.39,South,181,6.0,6.0,25,0.00,,,0.00,meteohub,2013-03-13 17:16:00,
2013-03-13 12:21:00,31.8,0.0,30.39,SSE,162,4.0,7.0,25,0.00,,,0.00,meteohub,2013-03-13 17:21:00,
2013-03-13 12:27:00,31.8,0.0,30.39,South,187,4.0,7.0,25,0.00,,,0.00,meteohub,2013-03-13 17:27:00,
2013-03-13 12:32:00,31.8,0.0,30.39,SSE,165,4.0,7.0,25,0.00,,,0.00,meteohub,2013-03-13 17:32:00,
2013-03-13 12:37:00,31.8,0.0,30.39,South,172,4.0,6.0,25,0.00,,,0.00,meteohub,2013-03-13 17:37:00,
2013-03-13 12:42:00,32.0,0.1,30.39,SE,146,0.0,6.0,25,0.00,,,0.00,meteohub,2013-03-13 17:42:00,
2013-03-13 12:47:00,32.2,0.3,30.39,South,171,3.0,6.0,25,0.00,,,0.00,meteohub,2013-03-13 17:47:00,
2013-03-13 12:52:00,32.4,0.5,30.39,SSE,159,3.0,6.0,25,0.00,,,0.00,meteohub,2013-03-13 17:52:00,
2013-03-13 12:58:00,32.5,0.7,30.39,SSE,163,4.0,6.0,25,0.00,,,0.00,meteohub,2013-03-13 17:58:00,
2013-03-13 13:03:00,32.9,0.9,30.39,SSE,167,5.0,8.0,25,0.00,,,0.00,meteohub,2013-03-13 18:03:00,
2013-03-13 13:08:00,32.9,0.9,30.39,South,173,5.0,8.0,25,0.00,,,0.00,meteohub,2013-03-13 18:08:00,
2013-03-13 13:13:00,33.3,1.2,30.39,SSE,158,5.0,8.0,25,0.00,,,0.00,meteohub,2013-03-13 18:13:00,
2013-03-13 13:19:00,33.1,1.0,30.39,SSE,168,4.0,8.0,25,0.00,,,0.00,meteohub,2013-03-13 18:19:00,
2013-03-13 13:24:00,33.3,1.2,30.39,South,182,6.0,8.0,25,0.00,,,0.00,meteohub,2013-03-13 18:24:00,
2013-03-13 13:29:00,33.3,1.2,30.39,SSE,168,6.0,8.0,25,0.00,,,0.00,meteohub,2013-03-13 18:29:00,
2013-03-13 13:34:00,33.3,1.2,30.36,South,191,8.0,8.0,25,0.00,,,0.00,meteohub,2013-03-13 18:34:00,
2013-03-13 13:40:00,33.3,1.2,30.36,South,177,5.0,9.0,25,0.00,,,0.00,meteohub,2013-03-13 18:40:00,
2013-03-13 13:45:00,33.6,1.6,30.36,South,170,6.0,9.0,25,0.00,,,0.00,meteohub,2013-03-13 18:45:00,
2013-03-13 13:50:00,33.6,1.6,30.36,South,170,5.0,8.0,25,0.00,,,0.00,meteohub,2013-03-13 18:50:00,
2013-03-13 13:55:00,34.0,1.8,30.36,SSE,159,5.0,8.0,25,0.00,,,0.00,meteohub,2013-03-13 18:55:00,
2013-03-13 14:00:00,34.5,2.3,30.36,SSE,152,6.0,8.0,25,0.00,,,0.00,meteohub,2013-03-13 19:00:00,
2013-03-13 14:05:00,34.9,2.7,30.36,SSE,168,5.0,8.0,25,0.00,,,0.00,meteohub,2013-03-13 19:05:00,
2013-03-13 14:10:00,35.1,2.8,30.36,SE,134,4.0,9.0,25,0.00,,,0.00,meteohub,2013-03-13 19:10:00,
2013-03-13 14:16:00,35.4,3.0,30.33,SW,230,6.0,9.0,25,0.00,,,0.00,meteohub,2013-03-13 19:16:00,
2013-03-13 14:21:00,35.6,2.3,30.33,SSE,165,6.0,10.0,24,0.00,,,0.00,meteohub,2013-03-13 19:21:00,
2013-03-13 14:27:00,36.0,2.7,30.33,SSE,151,4.0,10.0,24,0.00,,,0.00,meteohub,2013-03-13 19:27:00,
2013-03-13 14:32:00,36.3,3.0,30.33,SSE,166,6.0,10.0,24,0.00,,,0.00,meteohub,2013-03-13 19:32:00,
2013-03-13 14:37:00,36.5,3.2,30.33,SSE,155,6.0,8.0,24,0.00,,,0.00,meteohub,2013-03-13 19:37:00,
2013-03-13 14:42:00,36.7,3.2,30.33,SE,146,5.0,9.0,24,0.00,,,0.00,meteohub,2013-03-13 19:42:00,
2013-03-13 14:47:00,37.0,3.6,30.33,SSE,161,4.0,9.0,24,0.00,,,0.00,meteohub,2013-03-13 19:47:00,
2013-03-13 14:52:00,37.4,3.9,30.33,SSE,158,8.0,11.0,24,0.00,,,0.00,meteohub,2013-03-13 19:52:00,
2013-03-13 14:57:00,37.4,3.9,30.33,South,169,5.0,11.0,24,0.00,,,0.00,meteohub,2013-03-13 19:57:00,
2013-03-13 15:02:00,37.6,1.2,30.33,South,171,8.0,9.0,21,0.00,,,0.00,meteohub,2013-03-13 20:02:00,
2013-03-13 15:07:00,37.6,4.1,30.33,SSE,156,6.0,11.0,24,0.00,,,0.00,meteohub,2013-03-13 20:07:00,
2013-03-13 15:12:00,37.8,1.4,30.33,South,178,8.0,11.0,21,0.00,,,0.00,meteohub,2013-03-13 20:12:00,
2013-03-13 15:18:00,38.1,4.5,30.30,SSE,165,6.0,11.0,24,0.00,,,0.00,meteohub,2013-03-13 20:18:00,
2013-03-13 15:23:00,38.3,1.8,30.30,SSE,161,5.0,10.0,21,0.00,,,0.00,meteohub,2013-03-13 20:23:00,
2013-03-13 15:28:00,38.5,1.9,30.30,SSE,153,6.0,10.0,21,0.00,,,0.00,meteohub,2013-03-13 20:28:00,
2013-03-13 15:34:00,38.8,2.3,30.30,SSE,153,6.0,9.0,21,0.00,,,0.00,meteohub,2013-03-13 20:34:00,
2013-03-13 15:39:00,38.8,2.3,30.30,South,176,10.0,10.0,21,0.00,,,0.00,meteohub,2013-03-13 20:39:00,
2013-03-13 15:44:00,38.7,2.1,30.30,South,191,8.0,10.0,21,0.00,,,0.00,meteohub,2013-03-13 20:44:00,
2013-03-13 15:49:00,39.0,2.3,30.30,South,181,7.0,12.0,21,0.00,,,0.00,meteohub,2013-03-13 20:49:00,
2013-03-13 15:54:00,39.0,2.3,30.30,SSE,149,6.0,12.0,21,0.00,,,0.00,meteohub,2013-03-13 20:54:00,
2013-03-13 15:59:00,39.2,2.5,30.30,South,181,5.0,12.0,21,0.00,,,0.00,meteohub,2013-03-13 20:59:00,
2013-03-13 16:04:00,39.4,2.7,30.30,SSW,193,6.0,11.0,21,0.00,,,0.00,meteohub,2013-03-13 21:04:00,
2013-03-13 16:09:00,39.6,2.8,30.30,SSE,165,4.0,11.0,21,0.00,,,0.00,meteohub,2013-03-13 21:09:00,
2013-03-13 16:15:00,39.7,3.0,30.30,South,176,8.0,11.0,21,0.00,,,0.00,meteohub,2013-03-13 21:15:00,
2013-03-13 16:20:00,39.9,3.2,30.30,South,180,6.0,11.0,21,0.00,,,0.00,meteohub,2013-03-13 21:20:00,
2013-03-13 16:25:00,40.3,3.4,30.30,South,171,5.0,11.0,21,0.00,,,0.00,meteohub,2013-03-13 21:25:00,
2013-03-13 16:30:00,40.5,3.6,30.30,South,180,5.0,10.0,21,0.00,,,0.00,meteohub,2013-03-13 21:30:00,
2013-03-13 16:35:00,40.5,3.6,30.30,South,170,6.0,9.0,21,0.00,,,0.00,meteohub,2013-03-13 21:35:00,
2013-03-13 16:40:00,40.5,3.6,30.30,SSE,150,7.0,11.0,21,0.00,,,0.00,meteohub,2013-03-13 21:40:00,
2013-03-13 16:45:00,40.8,3.9,30.30,South,170,6.0,11.0,21,0.00,,,0.00,meteohub,2013-03-13 21:45:00,
2013-03-13 16:51:00,41.0,4.1,30.30,SE,142,6.0,10.0,21,0.00,,,0.00,meteohub,2013-03-13 21:51:00,
2013-03-13 16:56:00,41.0,4.1,30.30,South,190,6.0,11.0,21,0.00,,,0.00,meteohub,2013-03-13 21:56:00,
2013-03-13 17:01:00,41.2,4.1,30.27,South,172,8.0,11.0,21,0.00,,,0.00,meteohub,2013-03-13 22:01:00,
2013-03-13 17:07:00,41.2,4.1,30.27,SSE,147,6.0,10.0,21,0.00,,,0.00,meteohub,2013-03-13 22:07:00,
2013-03-13 17:12:00,41.5,4.5,30.27,South,177,7.0,11.0,21,0.00,,,0.00,meteohub,2013-03-13 22:12:00,
2013-03-13 17:17:00,41.5,4.5,30.27,South,174,6.0,11.0,21,0.00,,,0.00,meteohub,2013-03-13 22:17:00,
2013-03-13 17:22:00,41.7,4.6,30.27,SSE,148,8.0,9.0,21,0.00,,,0.00,meteohub,2013-03-13 22:22:00,
2013-03-13 17:27:00,41.9,4.8,30.27,SSE,158,6.0,9.0,21,0.00,,,0.00,meteohub,2013-03-13 22:27:00,
2013-03-13 17:32:00,41.9,4.8,30.27,South,170,6.0,10.0,21,0.00,,,0.00,meteohub,2013-03-13 22:32:00,
2013-03-13 17:37:00,42.1,5.0,30.27,SSE,154,8.0,11.0,21,0.00,,,0.00,meteohub,2013-03-13 22:37:00,
2013-03-13 17:43:00,42.3,5.2,30.27,South,177,9.0,11.0,21,0.00,,,0.00,meteohub,2013-03-13 22:43:00,
2013-03-13 17:48:00,42.3,5.2,30.27,SSE,158,8.0,10.0,21,0.00,,,0.00,meteohub,2013-03-13 22:48:00,
2013-03-13 17:53:00,42.4,5.2,30.27,South,179,8.0,11.0,21,0.00,,,0.00,meteohub,2013-03-13 22:53:00,
2013-03-13 17:58:00,42.6,5.4,30.27,South,181,7.0,11.0,21,0.00,,,0.00,meteohub,2013-03-13 22:58:00,
2013-03-13 18:03:00,42.8,4.5,30.24,South,180,9.0,11.0,20,0.00,,,0.00,meteohub,2013-03-13 23:03:00,
2013-03-13 18:09:00,43.0,4.6,30.24,SSE,168,8.0,10.0,20,0.00,,,0.00,meteohub,2013-03-13 23:09:00,
2013-03-13 18:14:00,43.0,4.6,30.24,SSE,157,8.0,10.0,20,0.00,,,0.00,meteohub,2013-03-13 23:14:00,
2013-03-13 18:19:00,43.2,4.8,30.24,South,170,6.0,10.0,20,0.00,,,0.00,meteohub,2013-03-13 23:19:00,
2013-03-13 18:24:00,43.3,5.0,30.24,SE,145,8.0,9.0,20,0.00,,,0.00,meteohub,2013-03-13 23:24:00,
2013-03-13 18:30:00,43.3,5.0,30.24,SSE,157,3.0,9.0,20,0.00,,,0.00,meteohub,2013-03-13 23:30:00,
2013-03-13 18:35:00,43.5,5.0,30.24,SSE,152,4.0,9.0,20,0.00,,,0.00,meteohub,2013-03-13 23:35:00,
2013-03-13 18:40:00,43.5,5.0,30.24,SSE,156,3.0,8.0,20,0.00,,,0.00,meteohub,2013-03-13 23:40:00,
2013-03-13 18:45:00,43.5,5.0,30.24,SSE,168,4.0,6.0,20,0.00,,,0.00,meteohub,2013-03-13 23:45:00,
2013-03-13 18:50:00,43.5,5.0,30.24,SSE,162,5.0,6.0,20,0.00,,,0.00,meteohub,2013-03-13 23:50:00,
2013-03-13 18:56:00,43.7,5.2,30.24,South,171,6.0,6.0,20,0.00,,,0.00,meteohub,2013-03-13 23:56:00,
2013-03-13 19:01:00,43.7,5.2,30.21,South,184,5.0,8.0,20,0.00,,,0.00,meteohub,2013-03-14 00:01:00,
2013-03-13 19:06:00,43.7,5.2,30.21,South,175,6.0,8.0,20,0.00,,,0.00,meteohub,2013-03-14 00:06:00,
2013-03-13 19:12:00,43.7,5.2,30.21,SSE,162,4.0,8.0,20,0.00,,,0.00,meteohub,2013-03-14 00:12:00,
2013-03-13 19:17:00,43.3,5.0,30.21,South,175,6.0,8.0,20,0.00,,,0.00,meteohub,2013-03-14 00:17:00,
2013-03-13 19:22:00,43.0,4.6,30.21,SSE,168,5.0,8.0,20,0.00,,,0.00,meteohub,2013-03-14 00:22:00,
2013-03-13 19:27:00,42.8,4.5,30.21,SSE,159,3.0,6.0,20,0.00,,,0.00,meteohub,2013-03-14 00:27:00,
2013-03-13 23:50:00,36.9,1.6,30.18,SSE,162,6.0,6.0,22,0.00,,,0.00,meteohub,2013-03-14 04:50:00,
2013-03-13 23:52:00,36.7,1.4,30.18,South,177,6.0,6.0,22,0.00,,,0.00,meteohub,2013-03-14 04:52:00,
2013-03-13 23:53:00,36.7,1.4,30.18,South,171,6.0,6.0,22,0.00,,,0.00,meteohub,2013-03-14 04:53:00,
2013-03-13 23:54:00,36.7,1.4,30.18,SSE,168,5.0,6.0,22,0.00,,,0.00,meteohub,2013-03-14 04:54:00,
2013-03-13 23:59:00,36.5,1.2,30.18,SSE,168,6.0,6.0,22,0.00,,,0.00,meteohub,2013-03-14 04:59:00,